K8MUD Weather Reports


Display with metric or nautical units.
time (UTC)temp
F
wind
direction
speed
MPH
gust
MPH
rain 1hr
in
rain 24hr
in
rain mn
in
humidity
%
barometer
mb
20260509034524 55 200 1.0 3.0 0.00 0.04 0.04 80 1006.7
20260509034443 55 200 1.0 3.0 0.00 0.04 0.04 80 1006.8
20260509034003 55 200 1.0 3.0 0.00 0.04 0.04 79 1006.8
20260509033943 55 200 1.0 3.0 0.00 0.04 0.04 79 1006.8
20260509033503 55 200 1.0 3.0 0.00 0.04 0.04 79 1006.7
20260509033442 55 200 2.0 3.0 0.00 0.04 0.04 79 1006.8
20260509033003 56 200 2.0 4.0 0.00 0.04 0.04 79 1006.7
20260509032942 56 200 2.0 4.0 0.00 0.04 0.04 79 1006.7
20260509032503 56 199 2.0 5.0 0.00 0.04 0.04 79 1006.8
20260509032442 56 199 2.0 5.0 0.00 0.04 0.04 79 1006.8
20260509032003 56 199 3.0 5.0 0.00 0.04 0.04 79 1006.8
20260509031942 56 199 3.0 5.0 0.00 0.04 0.04 79 1006.9
20260509031503 56 204 3.0 6.0 0.00 0.04 0.04 79 1006.9
20260509031442 56 206 3.0 6.0 0.00 0.04 0.04 79 1007.0
20260509031004 56 211 3.0 6.0 0.00 0.04 0.04 79 1006.9
20260509030942 56 213 2.0 6.0 0.00 0.04 0.04 79 1007.0
20260509030503 56 215 2.0 5.0 0.00 0.04 0.04 79 1007.0
20260509030442 56 215 3.0 5.0 0.00 0.04 0.04 79 1006.9
20260509030003 56 216 3.0 8.0 0.00 0.04 0.04 79 1007.0
20260509025942 56 215 3.0 8.0 0.00 0.04 0.04 79 1007.0
20260509025503 56 213 3.0 8.0 0.00 0.04 0.04 79 1007.0
20260509025442 56 212 3.0 8.0 0.00 0.04 0.04 79 1007.0
20260509025003 56 210 4.0 8.0 0.00 0.04 0.04 79 1007.0
20260509024942 56 211 4.0 8.0 0.00 0.04 0.04 79 1007.0
20260509024524 56 208 4.0 8.0 0.00 0.04 0.04 79 1007.1
20260509024442 56 208 4.0 8.0 0.00 0.04 0.04 79 1007.1
20260509024024 56 207 4.0 8.0 0.00 0.04 0.04 79 1007.2
20260509023942 56 205 4.0 8.0 0.00 0.04 0.04 79 1007.2
20260509023503 56 198 3.0 8.0 0.00 0.04 0.04 79 1007.1
20260509023442 56 197 3.0 8.0 0.00 0.04 0.04 79 1007.1
20260509023024 56 195 3.0 7.0 0.00 0.04 0.04 79 1007.1
20260509022942 56 196 3.0 7.0 0.00 0.04 0.04 79 1007.0
20260509022503 56 203 3.0 7.0 0.00 0.04 0.04 79 1007.0
20260509022441 56 204 3.0 7.0 0.00 0.04 0.04 79 1007.0
20260509022003 56 200 4.0 9.0 0.00 0.04 0.04 79 1007.0
20260509021941 56 200 4.0 9.0 0.00 0.04 0.04 78 1007.0
20260509021504 56 202 4.0 9.0 0.00 0.04 0.04 78 1007.0
20260509021441 56 204 4.0 9.0 0.00 0.04 0.04 78 1007.0
20260509021024 56 201 5.0 10.0 0.00 0.04 0.04 78 1006.9
20260509020941 56 202 5.0 10.0 0.00 0.04 0.04 78 1006.9
20260509020503 56 200 5.0 10.0 0.00 0.04 0.04 78 1006.8
20260509020441 56 198 5.0 10.0 0.00 0.04 0.04 78 1006.8
20260509020004 56 199 4.0 10.0 0.00 0.04 0.04 78 1006.8
20260509015941 56 197 4.0 9.0 0.00 0.04 0.04 78 1006.7
20260509015503 56 195 4.0 8.0 0.00 0.04 0.04 78 1006.7
20260509015441 56 192 3.0 8.0 0.00 0.04 0.04 78 1006.7
20260509015003 56 196 4.0 8.0 0.00 0.04 0.04 77 1006.7
20260509014941 57 198 3.0 8.0 0.00 0.04 0.04 77 1006.6
20260509014525 57 195 4.0 8.0 0.00 0.04 0.04 77 1006.5
20260509014441 57 191 4.0 8.0 0.00 0.04 0.04 76 1006.5
20260509014004 57 184 4.0 8.0 0.00 0.04 0.04 76 1006.4
20260509013941 57 178 3.0 8.0 0.00 0.04 0.04 76 1006.4
20260509013503 57 183 3.0 6.0 0.00 0.04 0.04 76 1006.4
20260509013441 57 188 3.0 6.0 0.00 0.04 0.04 75 1006.4
20260509013024 57 181 3.0 7.0 0.00 0.04 0.04 75 1006.4
20260509012940 57 185 3.0 7.0 0.00 0.04 0.04 75 1006.4
20260509012504 57 177 3.0 8.0 0.00 0.04 0.04 75 1006.4
20260509012440 57 175 3.0 8.0 0.00 0.04 0.04 74 1006.4
20260509012003 57 170 3.0 8.0 0.00 0.04 0.04 74 1006.3
20260509011940 57 167 3.0 8.0 0.00 0.04 0.04 74 1006.3
20260509011503 57 170 3.0 10.0 0.00 0.04 0.04 74 1006.3
20260509011440 57 173 3.0 10.0 0.00 0.04 0.04 74 1006.3
20260509011003 57 187 3.0 10.0 0.00 0.04 0.04 74 1006.3
20260509010940 57 193 3.0 10.0 0.00 0.04 0.04 74 1006.4
20260509010524 57 198 3.0 7.0 0.00 0.04 0.04 74 1006.4
20260509010440 57 193 3.0 9.0 0.00 0.04 0.04 74 1006.2
20260509010003 58 184 3.0 9.0 0.00 0.04 0.04 73 1006.2
20260509005940 58 181 3.0 9.0 0.00 0.04 0.04 74 1006.3
20260509005503 58 175 3.0 9.0 0.00 0.04 0.04 74 1006.3
20260509005440 58 175 3.0 6.0 0.00 0.04 0.04 74 1006.2
20260509005004 58 174 3.0 7.0 0.00 0.04 0.04 74 1006.3
20260509004940 58 172 3.0 7.0 0.00 0.04 0.04 74 1006.2
20260509004524 58 168 3.0 7.0 0.00 0.04 0.04 73 1006.2
20260509004440 58 169 4.0 9.0 0.00 0.04 0.04 73 1006.2
20260509004004 58 161 4.0 9.0 0.00 0.04 0.04 74 1006.2
20260509003940 58 162 4.0 9.0 0.00 0.04 0.04 74 1006.2
20260509003501 58 157 4.0 9.0 0.00 0.04 0.04 74 1006.1
20260509003410 58 155 4.0 9.0 0.00 0.04 0.04 74 1006.1
20260509003001 58 156 4.0 9.0 0.00 0.04 0.04 74 1006.0
20260509002910 58 156 4.0 9.0 0.00 0.04 0.04 74 1006.0
20260509002501 58 158 4.0 9.0 0.00 0.04 0.04 74 1006.1
20260509002409 58 157 3.0 8.0 0.00 0.04 0.04 75 1006.1
20260509002001 59 166 3.0 6.0 0.00 0.04 0.04 76 1006.1
20260509001909 59 167 3.0 6.0 0.00 0.04 0.04 76 1006.1
20260509001501 59 169 3.0 6.0 0.00 0.04 0.04 76 1006.1
20260509001409 59 170 3.0 6.0 0.00 0.04 0.04 76 1006.1
20260509001002 59 167 3.0 6.0 0.00 0.04 0.04 76 1006.1
20260509000909 59 167 3.0 6.0 0.00 0.04 0.04 76 1006.1
20260509000501 59 163 3.0 8.0 0.00 0.04 0.04 75 1006.1
20260509000410 59 163 3.0 8.0 0.00 0.04 0.04 75 1006.1
20260509000001 59 164 4.0 9.0 0.00 0.04 0.04 75 1006.0
20260508235909 59 161 4.0 9.0 0.00 0.04 0.04 75 1006.0
20260508235502 59 164 3.0 9.0 0.00 0.04 0.04 75 1006.0
20260508235409 59 163 3.0 9.0 0.00 0.04 0.04 75 1006.0
20260508235022 59 160 3.0 7.0 0.00 0.04 0.04 74 1006.0
20260508234909 59 161 3.0 7.0 0.00 0.04 0.04 74 1006.0
20260508234502 59 154 2.0 6.0 0.00 0.04 0.04 74 1006.1
20260508234409 59 152 2.0 6.0 0.00 0.04 0.04 74 1006.0
20260508234001 59 142 2.0 4.0 0.00 0.04 0.04 74 1006.1
20260508233909 59 140 2.0 5.0 0.00 0.04 0.04 74 1006.1
20260508233501 60 143 2.0 7.0 0.00 0.04 0.04 75 1006.1
20260508233409 60 143 3.0 7.0 0.00 0.04 0.04 75 1006.1
20260508233001 60 144 3.0 7.0 0.00 0.04 0.04 75 1006.2
20260508232909 60 148 3.0 7.0 0.00 0.04 0.04 75 1006.2
20260508232502 60 158 3.0 8.0 0.00 0.04 0.04 74 1006.2
20260508232409 60 160 3.0 8.0 0.00 0.04 0.04 74 1006.2
20260508232001 60 169 3.0 8.0 0.00 0.04 0.04 74 1006.2
20260508231909 60 166 4.0 8.0 0.00 0.04 0.04 74 1006.2
20260508231501 60 165 3.0 9.0 0.00 0.04 0.04 74 1006.2
20260508231409 60 166 4.0 10.0 0.00 0.04 0.04 74 1006.2
20260508231001 60 164 4.0 10.0 0.00 0.04 0.04 73 1006.2
20260508230908 60 166 4.0 10.0 0.00 0.04 0.04 73 1006.3
20260508230502 60 163 5.0 11.0 0.00 0.04 0.04 72 1006.2
20260508230408 60 162 5.0 11.0 0.00 0.04 0.04 71 1006.2
20260508230001 61 164 5.0 11.0 0.00 0.04 0.04 71 1006.2
20260508225908 61 165 5.0 11.0 0.00 0.04 0.04 70 1006.3
20260508225522 61 167 4.0 10.0 0.00 0.04 0.04 70 1006.2
20260508225408 61 167 4.0 10.0 0.00 0.04 0.04 70 1006.2
20260508225002 61 158 4.0 10.0 0.00 0.04 0.04 69 1006.3
20260508224908 61 156 4.0 10.0 0.00 0.04 0.04 69 1006.3
20260508224501 62 154 4.0 10.0 0.00 0.04 0.04 67 1006.3
20260508224408 62 153 4.0 10.0 0.00 0.04 0.04 67 1006.3
20260508224002 63 169 4.0 11.0 0.00 0.04 0.04 65 1006.3
20260508223908 63 171 4.0 11.0 0.00 0.04 0.04 64 1006.3
20260508223501 63 177 4.0 11.0 0.00 0.04 0.04 58 1006.3
20260508223408 62 178 5.0 11.0 0.00 0.04 0.04 58 1006.3
20260508223001 63 176 4.0 10.0 0.00 0.04 0.04 58 1006.3
20260508222908 63 173 4.0 10.0 0.00 0.04 0.04 58 1006.3
20260508222502 63 167 4.0 10.0 0.00 0.04 0.04 59 1006.3
20260508222408 63 164 4.0 9.0 0.00 0.04 0.04 61 1006.3
20260508222001 63 168 4.0 9.0 0.00 0.04 0.04 61 1006.3
20260508221908 63 173 4.0 12.0 0.00 0.04 0.04 59 1006.3
20260508221523 63 182 4.0 12.0 0.00 0.04 0.04 60 1006.3
20260508221408 63 182 5.0 12.0 0.00 0.04 0.04 59 1006.4
20260508221001 62 174 5.0 12.0 0.00 0.04 0.04 60 1006.4
20260508220908 62 173 4.0 8.0 0.00 0.04 0.04 60 1006.3
20260508220522 62 173 5.0 12.0 0.00 0.04 0.04 62 1006.3
20260508220408 62 172 5.0 12.0 0.00 0.04 0.04 62 1006.3
20260508220002 61 185 4.0 12.0 0.00 0.04 0.04 61 1006.4
20260508215908 61 185 4.0 12.0 0.00 0.04 0.04 61 1006.5
20260508215502 60 172 3.0 6.0 0.00 0.04 0.04 64 1006.5
20260508215408 60 166 2.0 6.0 0.00 0.04 0.04 64 1006.6
20260508215001 59 106 2.0 5.0 0.00 0.04 0.04 68 1006.4
20260508214907 59 98 2.0 4.0 0.00 0.04 0.04 71 1006.5
20260508214501 59 91 3.0 6.0 0.00 0.04 0.04 72 1006.6
20260508214407 59 90 3.0 6.0 0.00 0.04 0.04 72 1006.7
20260508214002 59 88 3.0 6.0 0.00 0.04 0.04 72 1006.7
20260508213907 59 88 3.0 6.0 0.00 0.04 0.04 73 1006.7
20260508213501 58 88 2.0 6.0 0.00 0.04 0.04 72 1006.8
20260508213407 58 88 2.0 6.0 0.00 0.04 0.04 73 1006.8
20260508213002 58 89 2.0 6.0 0.00 0.04 0.04 76 1006.7
20260508212907 57 89 2.0 6.0 0.00 0.04 0.04 77 1006.7
20260508212501 57 95 2.0 7.0 0.00 0.04 0.04 77 1006.9
20260508212407 57 95 3.0 7.0 0.00 0.04 0.04 77 1006.9
20260508212001 57 99 4.0 8.0 0.00 0.04 0.04 77 1006.9
20260508211907 57 100 4.0 8.0 0.00 0.04 0.04 77 1006.9
20260508211502 57 100 4.0 8.0 0.00 0.04 0.04 76 1006.9
20260508211407 58 101 3.0 8.0 0.00 0.04 0.04 75 1006.9
20260508211022 58 98 3.0 8.0 0.00 0.04 0.04 76 1007.0
20260508210907 57 97 4.0 8.0 0.00 0.04 0.04 77 1007.0
20260508210501 57 95 5.0 9.0 0.00 0.04 0.04 78 1006.9
20260508210407 57 95 5.0 9.0 0.00 0.04 0.04 78 1006.9
20260508210002 56 97 6.0 9.0 0.00 0.04 0.04 78 1007.0
20260508205907 56 97 6.0 9.0 0.00 0.04 0.04 78 1007.0
20260508205501 56 99 6.0 9.0 0.00 0.04 0.04 77 1007.1
20260508205407 56 99 5.0 9.0 0.00 0.04 0.04 77 1007.1
20260508205001 56 98 6.0 9.0 0.00 0.04 0.04 76 1007.1
20260508204907 56 99 6.0 10.0 0.00 0.04 0.04 76 1007.1
20260508204502 57 98 6.0 10.0 0.00 0.04 0.04 75 1007.1
20260508204407 57 97 6.0 10.0 0.00 0.04 0.04 75 1007.2
20260508204002 57 97 5.0 10.0 0.00 0.04 0.04 74 1007.2
20260508203907 57 95 4.0 9.0 0.00 0.04 0.04 76 1007.3
20260508203522 57 97 4.0 9.0 0.00 0.04 0.04 75 1007.3
20260508203407 57 97 4.0 7.0 0.00 0.04 0.04 76 1007.3
20260508203002 56 95 4.0 7.0 0.00 0.04 0.04 76 1007.4
20260508202906 56 95 4.0 7.0 0.00 0.04 0.04 75 1007.4
20260508202501 56 93 4.0 7.0 0.00 0.04 0.04 75 1007.5
20260508202406 56 93 3.0 7.0 0.00 0.04 0.04 76 1007.5
20260508202001 56 94 4.0 9.0 0.00 0.04 0.04 76 1007.6
20260508201906 56 96 4.0 9.0 0.00 0.04 0.04 76 1007.6
20260508201502 56 98 5.0 9.0 0.00 0.04 0.04 78 1007.7
20260508201406 56 98 5.0 9.0 0.00 0.04 0.04 77 1007.8
20260508201001 56 102 6.0 8.0 0.00 0.04 0.04 75 1007.8
20260508200906 56 102 6.0 9.0 0.00 0.04 0.04 75 1007.8
20260508200501 56 101 7.0 10.0 0.00 0.04 0.04 74 1007.9
20260508200406 56 102 7.0 10.0 0.00 0.04 0.04 73 1007.9
20260508200002 56 99 7.0 11.0 0.00 0.04 0.04 72 1008.0
20260508195906 56 98 7.0 11.0 0.00 0.04 0.04 72 1008.0
20260508195502 56 97 6.0 11.0 0.00 0.04 0.04 71 1008.0
20260508195406 56 96 6.0 11.0 0.00 0.04 0.04 70 1008.0
20260508195001 56 96 6.0 10.0 0.00 0.04 0.04 70 1008.1
20260508194906 56 96 6.0 10.0 0.00 0.04 0.04 71 1008.1
20260508194502 56 96 5.0 10.0 0.00 0.04 0.04 71 1008.4
20260508194406 56 97 5.0 10.0 0.00 0.04 0.04 71 1008.4
20260508194002 57 97 5.0 9.0 0.00 0.04 0.04 69 1008.5
20260508193905 57 97 5.0 8.0 0.00 0.04 0.04 69 1008.5
20260508193522 57 95 5.0 8.0 0.00 0.04 0.04 70 1008.5
20260508193405 57 94 5.0 8.0 0.00 0.04 0.04 70 1008.6
20260508193001 57 94 5.0 8.0 0.00 0.04 0.04 67 1008.7
20260508192905 57 93 5.0 8.0 0.00 0.04 0.04 67 1008.7
20260508192502 57 94 4.0 8.0 0.00 0.04 0.04 66 1008.9
20260508192405 57 94 5.0 8.0 0.00 0.04 0.04 66 1008.9
20260508192002 57 93 5.0 8.0 0.00 0.04 0.04 66 1008.8
20260508191905 57 93 4.0 8.0 0.00 0.04 0.04 66 1008.9
20260508191501 57 93 5.0 8.0 0.00 0.04 0.04 65 1008.9
20260508191405 57 93 4.0 8.0 0.00 0.04 0.04 64 1008.8
20260508191002 56 93 4.0 7.0 0.00 0.04 0.04 67 1009.0
20260508190905 56 94 5.0 8.0 0.00 0.04 0.04 66 1009.0
20260508190502 56 96 5.0 8.0 0.00 0.04 0.04 66 1009.0
20260508190405 56 98 5.0 8.0 0.00 0.04 0.04 67 1009.0
20260508190001 56 102 5.0 8.0 0.00 0.04 0.04 67 1009.1
20260508185905 56 101 5.0 8.0 0.00 0.04 0.04 67 1009.0
20260508185523 56 101 5.0 8.0 0.00 0.04 0.04 66 1009.0
20260508185405 56 101 5.0 8.0 0.00 0.04 0.04 68 1009.0
20260508185002 56 98 5.0 9.0 0.00 0.04 0.04 65 1009.1
20260508184905 56 99 5.0 9.0 0.00 0.04 0.04 65 1009.1
20260508184501 56 101 5.0 9.0 0.00 0.04 0.04 63 1009.1
20260508184404 56 101 5.0 9.0 0.00 0.04 0.04 63 1009.1
20260508184023 56 103 5.0 8.0 0.00 0.04 0.04 66 1009.1
20260508183904 56 103 5.0 8.0 0.00 0.04 0.04 65 1009.1
20260508183502 56 102 5.0 8.0 0.00 0.04 0.04 66 1009.1
20260508183404 56 102 5.0 8.0 0.00 0.04 0.04 67 1009.1
20260508183002 56 100 5.0 8.0 0.00 0.04 0.04 67 1009.2
20260508182904 56 101 5.0 8.0 0.00 0.04 0.04 68 1009.2
20260508182502 56 102 5.0 8.0 0.00 0.04 0.04 68 1009.3
20260508182404 55 102 5.0 8.0 0.00 0.04 0.04 67 1009.3
20260508182002 56 101 5.0 8.0 0.00 0.04 0.04 67 1009.4
20260508181904 56 100 4.0 8.0 0.00 0.04 0.04 69 1009.4
20260508181502 55 97 5.0 8.0 0.00 0.04 0.04 68 1009.4
20260508181404 55 97 5.0 8.0 0.00 0.04 0.04 68 1009.5
20260508181002 55 97 5.0 8.0 0.00 0.04 0.04 68 1009.6
20260508180904 55 97 6.0 9.0 0.00 0.04 0.04 68 1009.5
20260508180523 55 96 6.0 9.0 0.00 0.04 0.04 67 1009.4
20260508180404 56 95 5.0 9.0 0.00 0.04 0.04 65 1009.5
20260508180002 56 102 5.0 9.0 0.00 0.04 0.04 65 1009.6
20260508175904 56 106 4.0 7.0 0.00 0.04 0.04 65 1009.7
20260508175502 57 118 4.0 7.0 0.00 0.04 0.04 65 1009.7
20260508175404 57 119 3.0 7.0 0.00 0.04 0.04 64 1009.8
20260508175002 57 106 3.0 7.0 0.00 0.04 0.04 66 1009.8
20260508174904 56 100 3.0 7.0 0.00 0.04 0.04 66 1009.8
20260508174502 56 87 3.0 6.0 0.00 0.04 0.04 66 1010.0
20260508174404 56 87 3.0 5.0 0.00 0.04 0.04 65 1009.9
20260508174001 56 94 3.0 8.0 0.00 0.04 0.04 63 1010.1
20260508173903 56 94 3.0 8.0 0.00 0.04 0.04 65 1010.1
20260508173502 56 97 4.0 8.0 0.00 0.04 0.04 64 1010.2
20260508173403 56 97 4.0 8.0 0.00 0.04 0.04 64 1010.2
20260508173002 56 91 4.0 7.0 0.00 0.04 0.04 66 1010.2
20260508172903 56 91 4.0 7.0 0.00 0.04 0.04 64 1010.2
20260508172501 56 92 3.0 7.0 0.00 0.04 0.04 64 1010.4
20260508172403 56 94 4.0 8.0 0.00 0.04 0.04 64 1010.4
20260508172023 56 95 4.0 9.0 0.00 0.04 0.04 66 1010.4
20260508171903 56 97 4.0 9.0 0.00 0.04 0.04 66 1010.4
20260508171502 56 97 4.0 9.0 0.00 0.04 0.04 64 1010.5
20260508171403 56 98 3.0 9.0 0.00 0.04 0.04 65 1010.5
20260508171001 57 104 3.0 7.0 0.00 0.04 0.04 64 1010.5
20260508170903 57 107 3.0 7.0 0.00 0.04 0.04 65 1010.5
20260508170502 57 126 3.0 5.0 0.00 0.04 0.04 67 1010.5
20260508170403 57 130 3.0 5.0 0.00 0.04 0.04 66 1010.5
20260508170002 57 142 2.0 5.0 0.00 0.04 0.04 66 1010.5
20260508165903 57 143 2.0 5.0 0.00 0.04 0.04 66 1010.5
20260508165501 56 140 3.0 8.0 0.00 0.04 0.04 67 1010.6
20260508165403 56 137 3.0 8.0 0.00 0.04 0.04 65 1010.7
20260508165002 56 129 3.0 8.0 0.00 0.04 0.04 65 1010.7
20260508164903 56 125 3.0 8.0 0.00 0.04 0.04 66 1010.8
20260508164502 56 109 3.0 7.0 0.00 0.04 0.04 67 1010.8
20260508164403 56 105 3.0 7.0 0.00 0.04 0.04 68 1010.9
20260508164002 56 97 3.0 6.0 0.00 0.04 0.04 68 1011.0
20260508163903 55 101 3.0 5.0 0.00 0.04 0.04 69 1010.9
20260508163503 55 111 3.0 6.0 0.00 0.04 0.04 70 1011.0
20260508163403 55 118 3.0 6.0 0.00 0.04 0.04 70 1011.1
20260508163002 54 120 3.0 6.0 0.00 0.04 0.04 70 1011.1
20260508162903 54 115 3.0 6.0 0.00 0.04 0.04 70 1011.1
20260508162501 54 115 3.0 7.0 0.00 0.04 0.04 70 1011.2
20260508162402 54 116 3.0 7.0 0.00 0.04 0.04 71 1011.2
20260508162001 53 131 4.0 8.0 0.00 0.04 0.04 72 1011.1
20260508161902 53 135 4.0 8.0 0.00 0.04 0.04 72 1011.0
20260508161502 53 135 4.0 8.0 0.00 0.04 0.04 69 1011.1
20260508161402 53 135 4.0 8.0 0.00 0.04 0.04 70 1011.1
20260508161001 54 128 3.0 8.0 0.00 0.04 0.04 71 1011.1
20260508160902 54 126 3.0 8.0 0.00 0.04 0.04 71 1011.2
20260508160502 54 129 3.0 8.0 0.00 0.04 0.04 70 1011.1
20260508160402 54 131 3.0 7.0 0.00 0.04 0.04 71 1011.1
20260508160002 54 137 3.0 8.0 0.00 0.04 0.04 73 1011.1
20260508155902 54 137 3.0 8.0 0.00 0.04 0.04 74 1011.1
20260508155502 53 137 4.0 8.0 0.00 0.04 0.04 75 1011.1
20260508155402 53 135 4.0 8.0 0.00 0.04 0.04 74 1011.1
20260508155001 53 128 3.0 8.0 0.00 0.04 0.04 73 1011.2
20260508154902 54 127 3.0 8.0 0.00 0.04 0.04 73 1011.2
20260508154502 54 115 3.0 8.0 0.00 0.04 0.04 73 1011.2
20260508154402 53 113 3.0 6.0 0.00 0.04 0.04 74 1011.2
20260508154002 53 111 3.0 8.0 0.00 0.04 0.04 73 1011.2
20260508153902 53 113 3.0 8.0 0.00 0.04 0.04 72 1011.2
20260508153501 53 102 3.0 8.0 0.00 0.04 0.04 73 1011.2
20260508153402 53 102 3.0 8.0 0.00 0.04 0.04 73 1011.2
20260508153002 53 102 3.0 7.0 0.00 0.04 0.04 73 1011.2
20260508152902 53 100 3.0 7.0 0.00 0.04 0.04 75 1011.2
20260508152502 53 110 3.0 6.0 0.00 0.04 0.04 74 1011.3
20260508152402 53 108 3.0 6.0 0.00 0.04 0.04 74 1011.3
20260508152002 52 100 3.0 6.0 0.00 0.04 0.04 75 1011.4
20260508151901 52 98 2.0 6.0 0.00 0.04 0.04 75 1011.4
20260508151502 52 104 3.0 7.0 0.00 0.04 0.04 74 1011.4
20260508151401 52 109 2.0 7.0 0.00 0.04 0.04 74 1011.3
20260508151002 52 126 3.0 9.0 0.00 0.04 0.04 77 1011.3
20260508150901 52 127 3.0 9.0 0.00 0.04 0.04 77 1011.4
20260508150503 52 120 3.0 9.0 0.00 0.04 0.04 76 1011.4
20260508150401 52 121 3.0 9.0 0.00 0.04 0.04 76 1011.3
20260508150023 52 120 3.0 7.0 0.00 0.04 0.04 76 1011.4
20260508145901 52 123 3.0 7.0 0.00 0.04 0.04 78 1011.4
20260508145502 52 135 3.0 8.0 0.00 0.04 0.04 77 1011.4
20260508145401 51 136 3.0 8.0 0.00 0.04 0.04 77 1011.4
20260508145002 51 138 3.0 8.0 0.00 0.04 0.04 76 1011.5
20260508144901 51 140 3.0 8.0 0.00 0.04 0.04 77 1011.6
20260508144502 51 141 3.0 8.0 0.00 0.04 0.04 76 1011.6
20260508144401 52 141 3.0 8.0 0.00 0.04 0.04 76 1011.6
20260508144002 51 143 3.0 6.0 0.00 0.04 0.04 78 1011.6
20260508143901 51 143 3.0 6.0 0.00 0.04 0.04 77 1011.6
20260508143501 51 146 3.0 7.0 0.00 0.04 0.04 77 1011.6
20260508143401 51 146 3.0 7.0 0.00 0.04 0.04 77 1011.6
20260508143002 51 147 3.0 7.0 0.00 0.04 0.04 76 1011.6
20260508142901 51 147 3.0 7.0 0.00 0.04 0.04 76 1011.6
20260508142502 51 146 2.0 7.0 0.00 0.04 0.04 76 1011.7
20260508142400 51 145 2.0 7.0 0.00 0.04 0.04 76 1011.7
20260508142023 50 143 3.0 7.0 0.00 0.04 0.04 76 1011.8
20260508141900 50 144 3.0 7.0 0.00 0.04 0.04 77 1011.8
20260508141503 50 144 3.0 6.0 0.00 0.04 0.04 74 1011.8
20260508141400 50 144 3.0 7.0 0.00 0.04 0.04 75 1011.8
20260508141023 50 143 3.0 7.0 0.00 0.04 0.04 73 1011.8
20260508140900 50 143 3.0 7.0 0.00 0.04 0.04 73 1011.8
20260508140502 51 143 2.0 7.0 0.00 0.04 0.04 73 1011.7
20260508140400 51 144 2.0 6.0 0.00 0.04 0.04 73 1011.8
20260508140002 51 143 2.0 4.0 0.00 0.04 0.04 75 1011.8
20260508135900 51 143 2.0 4.0 0.00 0.04 0.04 75 1011.9
20260508135503 51 141 2.0 4.0 0.00 0.04 0.04 73 1011.8
20260508135400 51 141 2.0 4.0 0.00 0.04 0.04 74 1011.9
20260508135002 50 139 2.0 4.0 0.00 0.04 0.04 75 1011.9
20260508134900 50 139 1.0 4.0 0.00 0.04 0.04 75 1011.9
20260508134502 50 139 2.0 5.0 0.00 0.04 0.04 75 1011.9
20260508134400 50 140 2.0 5.0 0.00 0.04 0.04 75 1011.9
20260508134002 50 141 2.0 5.0 0.00 0.04 0.04 74 1012.0
20260508133900 50 141 2.0 5.0 0.00 0.04 0.04 74 1012.0
20260508133502 50 142 1.0 3.0 0.00 0.04 0.04 76 1011.9
20260508133400 50 142 1.0 3.0 0.00 0.04 0.04 75 1011.9
20260508133002 50 143 1.0 3.0 0.00 0.04 0.04 76 1012.0
20260508132900 50 143 1.0 3.0 0.00 0.04 0.04 75 1012.0
20260508132502 50 143 1.0 3.0 0.00 0.04 0.04 76 1011.9
20260508132400 50 143 1.0 3.0 0.00 0.04 0.04 76 1011.9
20260508132003 49 143 1.0 4.0 0.00 0.04 0.04 76 1011.9
20260508131900 49 143 1.0 4.0 0.00 0.04 0.04 76 1011.9
20260508131502 49 142 1.0 4.0 0.00 0.04 0.04 75 1012.0
20260508131359 49 142 1.0 4.0 0.00 0.04 0.04 77 1012.0
20260508131002 48 142 1.0 3.0 0.00 0.04 0.04 76 1011.9
20260508130859 48 142 1.0 3.0 0.00 0.04 0.04 76 1011.9
20260508130502 48 142 1.0 3.0 0.00 0.04 0.04 76 1011.9
20260508130359 48 142 2.0 4.0 0.00 0.04 0.04 76 1011.9
20260508130002 48 142 2.0 4.0 0.00 0.04 0.04 74 1011.8
20260508125859 48 143 2.0 4.0 0.00 0.04 0.04 74 1011.8
20260508125524 48 143 2.0 4.0 0.00 0.04 0.04 74 1011.9
20260508125359 48 143 2.0 4.0 0.00 0.04 0.04 74 1012.0
20260508125002 48 143 2.0 4.0 0.00 0.04 0.04 75 1011.8
20260508124859 48 143 2.0 4.0 0.00 0.04 0.04 75 1011.8
20260508124502 47 143 1.0 3.0 0.00 0.04 0.04 77 1011.9
20260508124359 47 143 1.0 3.0 0.00 0.04 0.04 77 1011.9
20260508124003 47 128 2.0 3.0 0.00 0.04 0.04 76 1011.9
20260508123859 47 109 2.0 3.0 0.00 0.04 0.04 76 1011.8
20260508123523 47 78 2.0 3.0 0.00 0.04 0.04 76 1011.7
20260508123359 47 60 2.0 3.0 0.00 0.04 0.04 77 1011.8
20260508123002 47 41 2.0 3.0 0.00 0.04 0.04 77 1011.8
20260508122859 47 41 1.0 3.0 0.00 0.04 0.04 76 1011.8
20260508122503 47 41 1.0 3.0 0.00 0.04 0.04 77 1011.6
20260508122359 46 41 1.0 4.0 0.00 0.04 0.04 77 1011.8
20260508122002 46 41 1.0 4.0 0.00 0.04 0.04 77 1011.8
20260508121859 46 41 1.0 4.0 0.00 0.04 0.04 77 1011.6
20260508121502 46 41 1.0 4.0 0.00 0.04 0.04 78 1011.6
20260508121359 46 40 1.0 3.0 0.00 0.04 0.04 79 1011.6
20260508121024 46 40 1.0 3.0 0.00 0.04 0.04 80 1011.5
20260508120859 46 40 1.0 3.0 0.00 0.04 0.04 80 1011.4
20260508120503 45 40 1.0 3.0 0.00 0.04 0.04 81 1011.4
20260508120359 45 40 1.0 3.0 0.00 0.04 0.04 82 1011.4
20260508120002 45 40 1.0 3.0 0.00 0.04 0.04 82 1011.4
20260508115858 44 34 1.0 4.0 0.00 0.04 0.04 84 1011.3
20260508115502 44 17 1.0 4.0 0.00 0.04 0.04 84 1011.3
20260508115358 44 353 1.0 4.0 0.00 0.04 0.04 85 1011.4
20260508115003 44 297 0.0 4.0 0.00 0.04 0.04 86 1011.3
20260508114858 44 279 0.0 3.0 0.00 0.04 0.04 87 1011.3
20260508114523 44 279 0.0 3.0 0.00 0.04 0.04 87 1011.1
20260508114358 43 278 0.0 1.0 0.00 0.04 0.04 88 1011.2
20260508114003 43 278 0.0 1.0 0.00 0.04 0.04 88 1011.2
20260508113858 43 278 0.0 1.0 0.00 0.04 0.04 88 1011.1
20260508113502 43 278 0.0 1.0 0.00 0.04 0.04 88 1011.1
20260508113358 43 278 0.0 1.0 0.00 0.04 0.04 88 1011.2
20260508113023 43 278 0.0 1.0 0.00 0.04 0.04 89 1011.1
20260508112858 42 277 0.0 1.0 0.00 0.04 0.04 89 1011.1
20260508112503 42 277 0.0 1.0 0.00 0.04 0.04 89 1011.0
20260508112358 42 277 0.0 1.0 0.00 0.04 0.04 89 1011.1
20260508112002 42 277 0.0 1.0 0.00 0.04 0.04 89 1011.0
20260508111858 42 277 0.0 1.0 0.00 0.04 0.04 89 1010.9
20260508111502 41 277 0.0 1.0 0.00 0.04 0.04 89 1011.0
20260508111358 41 277 0.0 1.0 0.00 0.04 0.04 89 1011.0
20260508111002 41 277 0.0 1.0 0.00 0.04 0.04 88 1010.8
20260508110858 41 277 0.0 1.0 0.00 0.04 0.04 88 1010.9
20260508110502 40 277 0.0 1.0 0.00 0.04 0.04 88 1010.9
20260508110358 40 277 0.0 1.0 0.00 0.04 0.04 88 1010.8
20260508110003 40 0 0.0 0.0 0.00 0.04 0.04 88 1010.9
20260508105857 40 0 0.0 0.0 0.00 0.04 0.04 88 1010.9
20260508105504 40 0 0.0 0.0 0.00 0.04 0.04 87 1010.8
20260508105357 40 0 0.0 0.0 0.00 0.04 0.04 87 1010.8
20260508105002 40 0 0.0 0.0 0.00 0.04 0.04 87 1010.9
20260508104857 40 0 0.0 0.0 0.00 0.04 0.04 87 1010.8
20260508104503 40 0 0.0 0.0 0.00 0.04 0.04 87 1010.9
20260508104357 40 0 0.0 0.0 0.00 0.04 0.04 87 1010.9
20260508104002 40 0 0.0 0.0 0.00 0.04 0.04 87 1010.9
20260508103857 40 277 0.0 1.0 0.00 0.04 0.04 87 1010.9
20260508103502 40 277 0.0 1.0 0.00 0.04 0.04 87 1010.8
20260508103357 40 277 0.0 1.0 0.00 0.04 0.04 87 1010.9
20260508103024 40 277 0.0 2.0 0.00 0.04 0.04 87 1010.9
20260508102857 40 277 0.0 2.0 0.00 0.04 0.04 87 1010.9
20260508102503 41 277 0.0 2.0 0.00 0.04 0.04 87 1010.9
20260508102357 41 277 0.0 2.0 0.00 0.04 0.04 87 1010.8
20260508102023 41 277 0.0 1.0 0.00 0.04 0.04 87 1010.9
20260508101857 41 277 0.0 1.0 0.00 0.04 0.04 87 1010.9
20260508101523 41 277 0.0 1.0 0.00 0.04 0.04 87 1010.9
20260508101357 41 277 0.0 1.0 0.00 0.04 0.04 87 1010.8
20260508101003 41 0 0.0 0.0 0.00 0.04 0.04 87 1010.9
20260508100857 41 0 0.0 0.0 0.00 0.04 0.04 87 1010.9
20260508100503 41 277 0.0 1.0 0.00 0.04 0.04 87 1010.9
20260508100357 41 277 0.0 1.0 0.00 0.04 0.04 87 1010.9
20260508100002 41 277 0.0 1.0 0.00 0.04 0.04 87 1010.9
20260508095856 41 277 0.0 1.0 0.00 0.04 0.04 86 1011.0
20260508095503 41 277 0.0 1.0 0.00 0.04 0.04 86 1011.0
20260508095356 41 277 0.0 1.0 0.00 0.04 0.04 86 1010.9
20260508095003 41 0 0.0 0.0 0.00 0.04 0.04 86 1010.9
20260508094856 41 0 0.0 0.0 0.00 0.04 0.04 86 1011.0
20260508094502 41 277 0.0 2.0 0.00 0.04 0.04 86 1010.9
20260508094356 41 277 0.0 2.0 0.00 0.04 0.04 86 1010.9
20260508094002 42 277 0.0 2.0 0.00 0.04 0.04 86 1011.0
20260508093856 42 277 1.0 2.0 0.00 0.04 0.04 86 1011.0
20260508093503 42 277 1.0 2.0 0.00 0.04 0.04 86 1011.0
20260508093356 42 277 1.0 2.0 0.00 0.04 0.04 86 1011.0
20260508093002 42 277 1.0 2.0 0.00 0.04 0.04 86 1010.9
20260508092856 42 277 0.0 2.0 0.00 0.04 0.04 86 1011.0
20260508092502 42 0 0.0 0.0 0.00 0.04 0.04 85 1010.9
20260508092356 42 0 0.0 0.0 0.00 0.04 0.04 86 1011.0
20260508092002 42 0 0.0 0.0 0.00 0.04 0.04 86 1011.0
20260508091856 42 0 0.0 0.0 0.00 0.04 0.04 86 1011.0
20260508091502 42 0 0.0 0.0 0.00 0.04 0.04 86 1011.0
20260508091356 42 0 0.0 0.0 0.00 0.04 0.04 86 1011.0
20260508091003 42 0 0.0 0.0 0.00 0.04 0.04 86 1011.0
20260508090856 42 0 0.0 0.0 0.00 0.04 0.04 86 1011.0
20260508090503 42 0 0.0 0.0 0.00 0.04 0.04 86 1011.1
20260508090356 42 0 0.0 0.0 0.00 0.04 0.04 86 1011.1
20260508090003 42 277 0.0 1.0 0.00 0.04 0.04 86 1011.1
20260508085856 42 277 0.0 1.0 0.00 0.04 0.04 86 1011.1
20260508085502 42 277 0.0 2.0 0.00 0.04 0.04 86 1011.2
20260508085356 42 275 1.0 4.0 0.00 0.04 0.04 86 1011.3
20260508085003 42 275 1.0 4.0 0.00 0.04 0.04 86 1011.3
20260508084855 42 275 1.0 4.0 0.00 0.04 0.04 86 1011.2
20260508084502 42 274 1.0 4.0 0.00 0.04 0.04 86 1011.2
20260508084355 42 273 0.0 4.0 0.00 0.04 0.04 86 1011.1
20260508084003 42 0 0.0 0.0 0.00 0.04 0.04 86 1011.0
20260508083855 43 0 0.0 0.0 0.00 0.04 0.04 86 1010.9
20260508083503 43 0 0.0 0.0 0.00 0.04 0.04 86 1011.0
20260508083355 43 0 0.0 0.0 0.00 0.04 0.04 85 1011.0
20260508083003 43 0 0.0 0.0 0.00 0.04 0.04 85 1011.0
20260508082855 43 0 0.0 0.0 0.00 0.04 0.04 85 1011.0
20260508082502 43 0 0.0 0.0 0.00 0.04 0.04 85 1011.1
20260508082355 43 0 0.0 0.0 0.00 0.04 0.04 85 1011.1
20260508082003 43 0 0.0 0.0 0.00 0.04 0.04 85 1011.0
20260508081855 43 0 0.0 0.0 0.00 0.04 0.04 85 1011.1
20260508081502 43 0 0.0 0.0 0.00 0.04 0.04 85 1011.1
20260508081355 43 0 0.0 0.0 0.00 0.04 0.04 85 1011.1
20260508081023 43 0 0.0 0.0 0.00 0.04 0.04 85 1011.2
20260508080855 43 0 0.0 0.0 0.00 0.04 0.04 85 1011.2
20260508080503 43 0 0.0 0.0 0.00 0.04 0.04 85 1011.2
20260508080355 43 0 0.0 0.0 0.00 0.04 0.04 86 1011.1
20260508080003 43 0 0.0 0.0 0.00 0.04 0.04 86 1011.1
20260508075855 43 0 0.0 0.0 0.00 0.04 0.04 86 1011.2
20260508075502 43 0 0.0 0.0 0.00 0.04 0.04 86 1011.1
20260508075355 43 0 0.0 0.0 0.00 0.04 0.04 86 1011.1
20260508075003 43 0 0.0 0.0 0.00 0.04 0.04 86 1011.0
20260508074854 43 0 0.0 0.0 0.00 0.04 0.04 86 1011.0
20260508074503 43 0 0.0 0.0 0.00 0.04 0.04 86 1011.1
20260508074354 43 0 0.0 0.0 0.00 0.04 0.04 86 1011.0
20260508074024 43 0 0.0 0.0 0.00 0.04 0.04 86 1011.1
20260508073854 43 0 0.0 0.0 0.00 0.04 0.04 87 1011.1
20260508073502 43 0 0.0 0.0 0.00 0.04 0.04 87 1011.0
20260508073354 43 0 0.0 0.0 0.00 0.04 0.04 87 1011.1
20260508073003 44 0 0.0 0.0 0.00 0.04 0.04 87 1011.1
20260508072854 44 0 0.0 0.0 0.00 0.04 0.04 87 1011.2
20260508072502 44 0 0.0 0.0 0.00 0.04 0.04 87 1011.2
20260508072354 44 0 0.0 0.0 0.00 0.04 0.04 88 1011.2
20260508072002 44 0 0.0 0.0 0.00 0.04 0.04 88 1011.1
20260508071854 44 0 0.0 0.0 0.00 0.04 0.04 88 1011.1
20260508071503 44 0 0.0 0.0 0.00 0.04 0.04 88 1011.1
20260508071354 44 0 0.0 0.0 0.00 0.04 0.04 88 1011.0
20260508071003 44 273 0.0 2.0 0.00 0.04 0.04 88 1010.9
20260508070854 44 273 0.0 2.0 0.00 0.04 0.04 88 1011.0
20260508070503 44 273 0.0 2.0 0.00 0.04 0.04 88 1011.0
20260508070354 44 272 0.0 2.0 0.00 0.04 0.04 89 1011.0
20260508070003 44 272 0.0 2.0 0.00 0.04 0.04 89 1011.2
20260508065854 44 272 0.0 2.0 0.00 0.04 0.04 89 1011.2
20260508065503 44 272 0.0 2.0 0.00 0.04 0.04 88 1011.2
20260508065354 44 272 0.0 2.0 0.00 0.04 0.04 88 1011.2
20260508065003 44 0 0.0 0.0 0.00 0.04 0.04 88 1011.1
20260508064853 44 0 0.0 0.0 0.00 0.04 0.04 88 1011.1
20260508064503 44 0 0.0 0.0 0.00 0.04 0.04 88 1011.1
20260508064353 44 0 0.0 0.0 0.00 0.04 0.04 88 1011.1
20260508064003 44 0 0.0 0.0 0.00 0.04 0.04 87 1011.0
20260508063853 44 0 0.0 0.0 0.00 0.04 0.04 87 1011.1
20260508063502 44 0 0.0 0.0 0.00 0.04 0.04 87 1011.0
20260508063353 44 0 0.0 0.0 0.00 0.04 0.04 87 1011.1
20260508063003 44 0 0.0 0.0 0.00 0.04 0.04 87 1011.0
20260508062853 44 0 0.0 0.0 0.00 0.04 0.04 87 1011.1
20260508062524 44 0 0.0 0.0 0.00 0.04 0.04 87 1011.1
20260508062353 44 0 0.0 0.0 0.00 0.04 0.04 87 1011.1
20260508062023 44 0 0.0 0.0 0.00 0.04 0.04 87 1011.2
20260508061853 44 0 0.0 0.0 0.00 0.04 0.04 86 1011.2
20260508061524 44 0 0.0 0.0 0.00 0.04 0.04 86 1011.2
20260508061353 45 0 0.0 0.0 0.00 0.04 0.04 86 1011.2
20260508061003 45 0 0.0 0.0 0.00 0.04 0.04 86 1011.3
20260508060853 45 0 0.0 0.0 0.01 0.04 0.04 86 1011.3
20260508060502 45 0 0.0 0.0 0.01 0.04 0.04 85 1011.3
20260508060353 45 0 0.0 0.0 0.01 0.04 0.04 85 1011.3
20260508060003 45 0 0.0 0.0 0.01 0.04 0.04 84 1011.3
20260508055853 45 0 0.0 0.0 0.01 0.04 0.04 84 1011.2
20260508055503 45 0 0.0 0.0 0.02 0.04 0.04 85 1011.1
20260508055353 45 0 0.0 0.0 0.03 0.04 0.04 84 1011.2
20260508055003 46 0 0.0 0.0 0.03 0.04 0.04 84 1011.1
20260508054852 46 0 0.0 0.0 0.03 0.04 0.04 84 1011.2
20260508054504 46 0 0.0 0.0 0.04 0.04 0.04 84 1011.1
20260508054352 46 0 0.0 0.0 0.04 0.04 0.04 83 1011.1
20260508054003 46 0 0.0 0.0 0.04 0.04 0.04 83 1011.0
20260508053852 46 0 0.0 0.0 0.04 0.04 0.04 83 1011.1
20260508053503 46 0 0.0 0.0 0.04 0.04 0.04 82 1011.3
20260508053352 47 0 0.0 0.0 0.04 0.04 0.04 82 1011.4
20260508053003 47 272 0.0 1.0 0.04 0.04 0.04 81 1011.5
20260508052852 47 272 0.0 3.0 0.04 0.04 0.04 81 1011.6
20260508052503 47 272 1.0 3.0 0.04 0.04 0.04 80 1011.6
20260508052352 47 272 1.0 3.0 0.04 0.04 0.04 80 1011.6
20260508052002 48 272 2.0 4.0 0.04 0.04 0.04 80 1011.8
20260508051852 48 272 2.0 4.0 0.04 0.04 0.04 80 1011.7
20260508051503 48 273 2.0 6.0 0.04 0.04 0.04 80 1011.7
20260508051352 48 273 2.0 6.0 0.04 0.04 0.04 78 1011.7
20260508051024 48 275 2.0 6.0 0.03 0.03 0.03 77 1011.7
20260508050852 48 275 3.0 8.0 0.03 0.03 0.03 77 1011.7
20260508050503 48 275 3.0 10.0 0.03 0.03 0.03 76 1011.7
20260508050352 49 280 5.0 10.0 0.03 0.03 0.03 75 1011.7
20260508050003 49 289 6.0 13.0 0.03 0.03 0.03 75 1011.9
20260508045852 49 295 8.0 15.0 0.03 0.03 0.03 74 1011.9
20260508045503 50 295 8.0 15.0 0.02 0.02 0.02 72 1012.0
20260508045352 50 289 7.0 15.0 0.01 0.01 0.01 71 1011.9
20260508045003 51 284 6.0 15.0 0.01 0.01 0.01 69 1011.9
20260508044852 51 272 5.0 11.0 0.01 0.01 0.01 68 1011.7
20260508044503 51 262 4.0 10.0 0.00 0.00 0.00 66 1011.8
20260508044352 51 262 3.0 8.0 0.00 0.00 0.00 64 1011.5
20260508044003 51 244 3.0 6.0 0.00 0.00 0.00 63 1011.4
20260508043852 51 240 2.0 4.0 0.00 0.00 0.00 63 1011.4
20260508043502 51 238 2.0 5.0 0.00 0.00 0.00 63 1011.3
20260508043352 51 235 2.0 5.0 0.00 0.00 0.00 63 1011.3
20260508043004 51 226 2.0 5.0 0.00 0.00 0.00 63 1011.3
20260508042851 51 220 2.0 5.0 0.00 0.00 0.00 63 1011.2
20260508042524 51 211 2.0 5.0 0.00 0.00 0.00 63 1011.3
20260508042351 51 210 2.0 4.0 0.00 0.00 0.00 62 1011.3
20260508042003 51 207 2.0 4.0 0.00 0.00 0.00 62 1011.3
20260508041851 51 205 2.0 4.0 0.00 0.00 0.00 62 1011.1
20260508041524 51 201 2.0 5.0 0.00 0.00 0.00 61 1011.2
20260508041351 51 200 2.0 5.0 0.00 0.00 0.00 60 1011.2
20260508041004 51 199 2.0 5.0 0.00 0.00 0.00 58 1011.1
20260508040851 51 199 1.0 5.0 0.00 0.00 0.00 58 1011.2
20260508040524 51 196 1.0 3.0 0.00 0.00 0.00 58 1011.2
20260508040351 51 196 1.0 2.0 0.00 0.00 0.00 58 1011.1
20260508040024 51 196 1.0 4.0 0.00 0.00 0.00 58 1011.3
20260508035851 51 195 2.0 4.0 0.00 0.00 0.00 57 1011.3
20260508035503 52 217 2.0 7.0 0.00 0.00 0.00 57 1011.2
20260508035351 52 235 2.0 7.0 0.00 0.00 0.00 57 1011.2
20260508035004 52 253 2.0 7.0 0.00 0.00 0.00 56 1011.2
20260508034851 52 265 2.0 7.0 0.00 0.00 0.00 56 1011.2